Amateur Radio Satellites - All Passes

Search period start: 23 May 2013 05:45
Search period end: 24 May 2013 05:45
Location: Wyoming Infrared Observatory, 41.0971°N, 105.9765°W

Satellite Date Start Highest point End Downlink Frequencies (MHz)
Time Altitude Azimuth
STRAND 1 23 May 05:47:05 05:51:28 30° 67° (ENE) 05:55:52 ?
KITSAT 1 23 May 05:50:49 05:55:45 17° 27° (NNE) 06:00:40 435.175 FM
ISS 23 May 06:07:08 06:08:56 14° 357° (N) 06:10:44 145.800 FM
TMSAT-1 23 May 06:16:22 06:20:37 25° 295° (WNW) 06:24:50 436.925 FM
Oscar 10/S400 23 May 06:18:08 09:23:52 54° 243° (WSW) 16:35:28 145.825 - 145.975 CW/USB, Beacon 145.810 USB
Gurwin Techsat 1B 23 May 06:40:42 06:42:12 11° 302° (WNW) 06:43:42 435.225 FM
Saudisat 1A 23 May 06:49:03 06:53:21 39° 309° (NW) 06:57:42 436.775 MHz
AO-7 23 May 06:56:40 07:04:53 63° 293° (WNW) 07:13:04 29.400 - 29.500 MHz
PCSat 23 May 07:13:29 07:18:33 43° 112° (ESE) 07:23:41 145.825 MHz
STRAND 1 23 May 07:26:03 07:30:35 32° 263° (W) 07:35:10 ?
ISS 23 May 07:44:04 07:46:37 20° 18° (NNE) 07:49:11 145.800 FM
KITSAT 1 23 May 07:45:22 07:53:18 53° 52° (NE) 08:01:11 435.175 FM
Sapphire 23 May 07:46:05 07:51:29 79° 117° (ESE) 07:56:55 437.095 MHz 1200 baud AX-25 AFSK
JAS-1B 23 May 08:04:43 08:09:44 28° 94° (E) 08:14:31 435.800 - 435.900 CW/SSB
Hamsat 23 May 08:07:39 08:12:02 76° 102° (ESE) 08:16:24 145.90 MHz
SO-50 23 May 08:23:32 08:27:53 36° 115° (ESE) 08:32:13 436.795 FM
SO-67 23 May 08:30:03 08:33:29 42° 98° (E) 08:36:54 435.3500 MHz FM
AO-7 23 May 08:51:56 08:56:02 15° 314° (NW) 09:00:07 29.400 - 29.500 MHz
PCSat 23 May 08:57:27 09:02:08 29° 310° (NW) 09:06:51 145.825 MHz
ISS 23 May 09:20:21 09:23:44 88° 33° (NNE) 09:27:06 145.800 FM
Sapphire 23 May 09:31:51 09:35:34 18° 317° (NW) 09:39:17 437.095 MHz 1200 baud AX-25 AFSK
KITSAT 1 23 May 09:41:11 09:48:27 37° 252° (WSW) 09:55:41 435.175 FM
Hamsat 23 May 09:46:27 09:47:29 11° 298° (WNW) 09:48:31 145.90 MHz
JAS-1B 23 May 09:55:05 10:00:37 38° 294° (WNW) 10:05:46 435.800 - 435.900 CW/SSB
SO-50 23 May 10:04:20 10:08:33 30° 312° (NW) 10:12:44 436.795 FM
SO-67 23 May 10:05:09 10:06:34 12° 294° (WNW) 10:07:58 435.3500 MHz FM
Oscar 11 23 May 10:07:45 10:11:10 22° 94° (E) 10:14:34 145.825 FM, Beacon 2401.500 USB
JAS-2 23 May 10:10:52 10:17:05 36° 94° (E) 10:22:36 435.800 - 435.900 CW/SSB, 435.910 FM
HO-68 23 May 10:13:56 10:20:53 50° 101° (E) 10:27:47 435.675 MHz FM
OPAL 23 May 10:43:27 10:47:21 23° 96° (E) 10:51:13 ?
ISS 23 May 10:59:13 10:59:58 11° 232° (SW) 11:00:42 145.800 FM
UOSAT-12 23 May 11:21:24 11:25:40 44° 117° (ESE) 11:29:59 437.025 FM, 437.400 FM
Oscar 11 23 May 11:43:32 11:47:27 33° 290° (WNW) 11:51:21 145.825 FM, Beacon 2401.500 USB
JAS-2 23 May 11:55:50 12:02:08 38° 295° (WNW) 12:07:44 435.800 - 435.900 CW/SSB, 435.910 FM
MaSat-1 23 May 11:59:13 12:02:22 50° 249° (WSW) 12:05:00 437.345 MHz
HO-68 23 May 12:02:06 12:08:17 33° 298° (WNW) 12:14:28 435.675 MHz FM
OPAL 23 May 12:21:43 12:26:25 41° 293° (WNW) 12:31:02 ?
Oscar 16 23 May 12:24:18 12:26:14 12° 58° (ENE) 12:28:09 437.025 USB, Beacon 2401.1428
PANSAT 23 May 12:29:02 12:30:28 12° 173° (S) 12:31:54 not established
AO-27 23 May 12:35:30 12:36:55 11° 58° (ENE) 12:38:21 436.795 MHz FM
ITAMSAT 1 23 May 12:41:15 12:43:19 12° 59° (ENE) 12:45:24 435.822 SSB
UOSAT-12 23 May 13:02:22 13:06:02 24° 315° (NW) 13:09:44 437.025 FM, 437.400 FM
Uribyol 2 23 May 13:19:20 13:23:44 29° 66° (ENE) 13:28:09 436.500 FM
Oscar 19 23 May 13:20:48 13:25:25 33° 68° (ENE) 13:30:03 437.125 CW, 437.150 USB
Saudisat 1A 23 May 13:37:13 13:40:50 23° 44° (NE) 13:44:24 436.775 MHz
Oscar 16 23 May 13:59:36 14:04:48 89° 76° (ENE) 14:10:02 437.025 USB, Beacon 2401.1428
PANSAT 23 May 14:08:34 14:10:03 12° 186° (S) 14:11:33 not established
AO-27 23 May 14:10:26 14:15:36 83° 75° (ENE) 14:20:49 436.795 MHz FM
ITAMSAT 1 23 May 14:16:53 14:22:04 88° 256° (WSW) 14:27:17 435.822 SSB
Gurwin Techsat 1B 23 May 14:40:51 14:44:41 21° 63° (ENE) 14:48:31 435.225 FM
Uosat F 23 May 14:51:09 14:55:26 30° 67° (ENE) 14:59:45 435.120 FM
Sapphire 23 May 14:52:59 14:55:05 12° 37° (NE) 14:57:12 437.095 MHz 1200 baud AX-25 AFSK
RS-15 23 May 14:55:59 15:04:27 23° 101° (E) 15:12:40 29.354 - 29.394 USB, Beacon 29.352 USB
AO-Echo 23 May 14:57:05 15:01:56 76° 75° (ENE) 15:06:41 ?
Uribyol 2 23 May 14:58:23 15:03:05 35° 263° (W) 15:07:50 436.500 FM
Oscar 19 23 May 15:00:14 15:04:45 30° 264° (W) 15:09:19 437.125 CW, 437.150 USB
Saudisat 1A 23 May 15:16:25 15:20:47 47° 243° (WSW) 15:25:03 436.775 MHz
Oscar 16 23 May 15:44:01 15:44:50 10° 272° (W) 15:45:39 437.025 USB, Beacon 2401.1428
AO-27 23 May 15:54:14 15:55:46 11° 271° (W) 15:57:18 436.795 MHz FM
TMSAT-1 23 May 15:56:36 16:01:49 66° 73° (ENE) 16:07:05 436.925 FM
PCSat 23 May 16:01:27 16:06:27 36° 52° (NE) 16:11:25 145.825 MHz
AO-7 23 May 16:03:28 16:11:00 41° 61° (ENE) 16:18:35 29.400 - 29.500 MHz
Gurwin Techsat 1B 23 May 16:19:05 16:24:15 53° 260° (W) 16:29:27 435.225 FM
Uosat F 23 May 16:29:44 16:34:10 32° 263° (W) 16:38:38 435.120 FM
Sapphire 23 May 16:34:16 16:39:40 61° 58° (ENE) 16:45:02 437.095 MHz 1200 baud AX-25 AFSK
AO-Echo 23 May 16:39:59 16:41:14 11° 270° (W) 16:42:28 ?
SO-50 23 May 16:55:41 16:59:48 32° 48° (NE) 17:03:50 436.795 FM
RS-15 23 May 17:03:14 17:15:20 88° 121° (ESE) 17:26:57 29.354 - 29.394 USB, Beacon 29.352 USB
TMSAT-1 23 May 17:39:11 17:42:13 15° 270° (W) 17:45:16 436.925 FM
PCSat 23 May 17:44:59 17:49:49 34° 250° (WSW) 17:54:38 145.825 MHz
AO-7 23 May 17:55:46 18:03:39 47° 259° (W) 18:11:37 29.400 - 29.500 MHz
Sapphire 23 May 18:18:56 18:22:35 19° 255° (WSW) 18:26:12 437.095 MHz 1200 baud AX-25 AFSK
SO-50 23 May 18:36:25 18:40:21 29° 246° (WSW) 18:44:12 436.795 FM
JAS-1B 23 May 18:47:28 18:55:17 35° 65° (ENE) 19:02:05 435.800 - 435.900 CW/SSB
Hamsat 23 May 19:01:40 19:05:46 53° 74° (ENE) 19:09:55 145.90 MHz
SO-67 23 May 19:06:52 19:09:13 17° 68° (ENE) 19:11:35 435.3500 MHz FM
RS-15 23 May 19:18:56 19:29:20 34° 326° (NW) 19:39:23 29.354 - 29.394 USB, Beacon 29.352 USB
STRAND 1 23 May 19:36:05 19:41:15 85° 104° (ESE) 19:46:25 ?
UOSAT-12 23 May 19:51:05 19:55:24 39° 50° (NE) 19:59:43 437.025 FM, 437.400 FM
JAS-2 23 May 20:22:33 20:28:04 22° 58° (ENE) 20:33:35 435.800 - 435.900 CW/SSB, 435.910 FM
JAS-1B 23 May 20:36:28 20:45:32 57° 259° (W) 20:53:20 435.800 - 435.900 CW/SSB
SO-67 23 May 20:39:20 20:42:28 28° 264° (W) 20:45:37 435.3500 MHz FM
Hamsat 23 May 20:40:19 20:42:11 13° 270° (W) 20:44:03 145.90 MHz
HO-68 23 May 20:42:36 20:49:02 38° 63° (ENE) 20:55:28 435.675 MHz FM
Oscar 11 23 May 21:03:43 21:06:42 19° 65° (ENE) 21:09:41 145.825 FM, Beacon 2401.500 USB
STRAND 1 23 May 21:17:31 21:19:44 13° 301° (WNW) 21:21:57 ?
UOSAT-12 23 May 21:31:39 21:35:23 25° 248° (WSW) 21:39:06 437.025 FM, 437.400 FM
RS-15 23 May 21:38:40 21:46:41 21° 1° (N) 21:54:29 29.354 - 29.394 USB, Beacon 29.352 USB
OPAL 23 May 21:57:53 22:02:45 42° 68° (ENE) 22:07:36 ?
JAS-2 23 May 22:04:21 22:12:06 88° 256° (WSW) 22:20:00 435.800 - 435.900 CW/SSB, 435.910 FM
KITSAT 1 23 May 22:14:12 22:21:13 35° 108° (ESE) 22:28:17 435.175 FM
HO-68 23 May 22:29:56 22:36:37 42° 261° (W) 22:43:20 435.675 MHz FM
Oscar 11 23 May 22:38:34 22:42:37 40° 262° (W) 22:46:43 145.825 FM, Beacon 2401.500 USB
OPAL 23 May 23:37:38 23:41:47 24° 263° (W) 23:45:55 ?
JAS-2 23 May 23:53:10 23:58:00 18° 273° (W) 00:02:54 435.800 - 435.900 CW/SSB, 435.910 FM
RS-15 23 May 23:53:43 00:03:48 36° 36° (NE) 00:13:33 29.354 - 29.394 USB, Beacon 29.352 USB
KITSAT 1 24 May 00:08:22 00:16:15 56° 307° (NW) 00:24:13 435.175 FM
MaSat-1 24 May 00:48:08 00:53:38 25° 106° (ESE) 00:58:28 437.345 MHz
Oscar 19 24 May 01:34:56 01:36:24 11° 88° (E) 01:37:52 437.125 CW, 437.150 USB
ISS 24 May 02:02:51 02:05:45 29° 135° (SE) 02:08:40 145.800 FM
RS-15 24 May 02:06:16 02:17:22 79° 242° (WSW) 02:28:12 29.354 - 29.394 USB, Beacon 29.352 USB
KITSAT 1 24 May 02:08:36 02:13:41 18° 332° (NNW) 02:18:48 435.175 FM
Oscar 16 24 May 02:11:58 02:16:35 32° 96° (E) 02:21:08 437.025 USB, Beacon 2401.1428
AO-27 24 May 02:24:04 02:28:39 30° 96° (E) 02:33:13 436.795 MHz FM
MaSat-1 24 May 02:28:41 02:35:36 61° 298° (WNW) 02:41:15 437.345 MHz
ITAMSAT 1 24 May 02:30:17 02:35:00 34° 97° (E) 02:39:42 435.822 SSB
AO-Echo 24 May 03:04:53 03:08:43 24° 95° (E) 03:12:36 ?
Uribyol 2 24 May 03:10:39 03:15:56 84° 104° (ESE) 03:21:10 436.500 FM
Oscar 19 24 May 03:11:12 03:16:24 83° 285° (WNW) 03:21:32 437.125 CW, 437.150 USB
ISS 24 May 03:39:18 03:42:23 35° 332° (NNW) 03:45:30 145.800 FM
Oscar 16 24 May 03:51:22 03:55:52 31° 293° (WNW) 04:00:21 437.025 USB, Beacon 2401.1428
AO-27 24 May 04:03:30 04:08:09 34° 292° (WNW) 04:12:48 436.795 MHz FM
ITAMSAT 1 24 May 04:09:54 04:14:25 30° 293° (WNW) 04:18:55 435.822 SSB
KITSAT 1 24 May 04:11:48 04:13:20 11° 3° (N) 04:14:52 435.175 FM
TMSAT-1 24 May 04:13:09 04:17:36 27° 95° (E) 04:22:00 436.925 FM
MaSat-1 24 May 04:16:16 04:18:30 12° 313° (NW) 04:20:34 437.345 MHz
RS-15 24 May 04:21:33 04:27:42 17° 262° (W) 04:33:51 29.354 - 29.394 USB, Beacon 29.352 USB
Gurwin Techsat 1B 24 May 04:35:16 04:40:34 64° 101° (ESE) 04:45:49 435.225 FM
Uosat F 24 May 04:36:51 04:41:55 80° 103° (ESE) 04:46:57 435.120 FM
AO-Echo 24 May 04:43:15 04:47:35 36° 290° (WNW) 04:52:00 ?
Uribyol 2 24 May 04:52:18 04:54:41 13° 301° (WNW) 04:57:04 436.500 FM
Oscar 19 24 May 04:53:34 04:54:54 11° 302° (WNW) 04:56:14 437.125 CW, 437.150 USB
STRAND 1 24 May 05:15:38 05:18:36 16° 61° (ENE) 05:21:34 ?
ISS 24 May 05:17:53 05:19:51 15° 352° (N) 05:21:49 145.800 FM
Saudisat 1A 24 May 05:23:17 05:27:39 47° 117° (ESE) 05:32:04 436.775 MHz

Developed and maintained by Chris Peat, Heavens-Above GmbH. Please read the updated FAQ before sending e-mail. Imprint. DLR
